Location: Gand�
(15.0971°N, 12.6564°W)
Time: 15:19:52
(UTC+00:00)

Spot 2 - Pass Details

Date: 07 August 2020
Orbit: 569 x 774 km, 98.7° (Epoch: 19 September)

Event Time Altitude Azimuth Distance (km) Brightness Sun altitude
Rises 05:53:28 0° 8° (N) 3,213 8.1 -10.3°
Reaches altitude 10° 05:55:49 10° 6° (N) 2,269 7.3 -9.7°
Maximum altitude 06:00:47 70° 284° (WNW) 775 4.4 -8.6°
Drops below altitude 10° 06:05:31 10° 201° (SSW) 2,157 6.5 -7.5°
Sets 06:07:42 0° 198° (SSW) 3,041 7.2 -7.0°
